This demonstration page uses our WeatherBlox Daily Observations layout. Learn more.

Left ArrowRight Arrow

30.21309, -93.2044

Hourly Observations for July 12, 2022

Temp ( °F °C ) Dew Point ( °F °C ) Humidity (%) Winds ( mph kmh ) Pressure ( in mb ) Visibility ( mi km ) Precip ( " mm )
12:15 am 00:15 Mostly Cloudy 82 27.8 78 25.6 88 88 SSE 3 6 29.88 1012 10 16 0.00 0.00
12:35 am 00:35 Mostly Cloudy 81 27.3 78 25.7 91 91 Calm 29.87 1011 10 16 0.00 0.00
12:55 am 00:55 Mostly Cloudy 83 28.4 78 25.7 85 85 SSW 3 6 29.87 1011 10 16 0.00 0.00
1:15 am 01:15 Cloudy 83 28.5 78 25.6 84 84 WSW 3 6 29.86 1011 10 16 0.00 0.00
1:35 am 01:35 Mostly Cloudy 83 28.5 78 25.5 84 84 SW 5 7 29.86 1011 10 16 0.00 0.00
1:55 am 01:55 Clear 83 28.4 78 25.4 84 84 SW 5 7 29.85 1011 10 16 0.00 0.00
2:15 am 02:15 Clear 83 28.4 78 25.4 84 84 SSW 3 6 29.85 1011 10 16 0.00 0.00
2:35 am 02:35 Clear 83 28.4 78 25.4 84 84 SW 5 7 29.85 1011 10 16 0.00 0.00
2:55 am 02:55 Clear 82 27.8 78 25.3 86 86 Calm 29.85 1011 10 16 0.00 0.00
3:15 am 03:15 Clear 82 27.9 78 25.3 86 86 Calm 29.85 1011 10 16 0.00 0.00
3:35 am 03:35 Clear 83 28.5 78 25.5 84 84 W 3 6 29.86 1011 10 16 0.00 0.00
3:55 am 03:55 Clear 83 28.5 78 25.6 84 84 WSW 6 9 29.85 1011 10 16 0.00 0.00
4:15 am 04:15 Clear 83 28.6 78 25.7 84 84 WSW 8 13 29.85 1011 10 16 0.00 0.00
4:35 am 04:35 Partly Cloudy 83 28.6 78 25.6 84 84 WSW 7 11 29.86 1011 10 16 0.00 0.00
4:55 am 04:55 Partly Cloudy 83 28.4 78 25.6 85 85 SW 7 11 29.85 1011 10 16 0.00 0.00
5:15 am 05:15 Clear 83 28.2 78 25.5 85 85 SW 6 9 29.85 1011 10 16 0.00 0.00
5:35 am 05:35 Clear 83 28.2 78 25.6 86 86 W 6 9 29.86 1011 10 16 0.00 0.00
6:00 am 06:00 Mostly Clear 82 28 79 26 89 89 Calm 29.87 1011 10 16 0.00 0.00
6:45 am 06:45 Mostly Sunny 82 28 79 26 89 89 Calm 29.88 1012 7 11 0.00 0.00
7:45 am 07:45 Mostly Sunny 84 29 79 26 84 84 WNW 9 15 29.88 1012 10 16 0.00 0.00
8:50 am 08:50 Mostly Cloudy 86 30 77 25 75 75 WNW 12 19 29.90 1013 10 16 0.00 0.00
9:45 am 09:45 Mostly Cloudy 88 31 75 24 66 66 NW 14 22 29.90 1013 10 16 0.00 0.00
10:01 am 10:01 Partly Cloudy 90 32 73 23 59 59 NW 13 20 29.90 1012 10 16 0.00 0.00
10:45 am 10:45 Partly Cloudy 90 32 75 24 63 63 NNW 12 19 29.90 1012 10 16 0.00 0.00
11:55 am 11:55 Partly Cloudy 91 33 75 24 59 59 NW 12 19 29.90 1012 10 16 0.00 0.00
12:45 pm 12:45 Partly Cloudy 91 33 73 23 56 56 N 6 9 29.90 1012 10 16 0.00 0.00
1:53 pm 13:53 Partly Cloudy 93 34 75 24 56 56 NNE 6 9 29.88 1012 10 16 0.00 0.00
3:54 pm 15:54 Partly Cloudy 97 36 75 24 50 50 S 5 7 29.85 1011 10 16 0.00 0.00
4:53 pm 16:53 Partly Cloudy 95 35 75 24 53 53 ESE 8 13 29.84 1010 10 16 0.00 0.00
5:48 pm 17:48 Hazy 95 35 75 24 53 53 S 9 15 29.84 1010 7 11 0.00 0.00
7:54 pm 19:54 Partly Cloudy with Thunderstorms 82 28 70 21 66 66 WSW 9 15 29.88 1012 10 16 0.00 0.00
8:52 pm 20:52 Mostly Clear 81 27 72 22 74 74 Calm 29.87 1011 10 16 0.00 0.00
9:52 pm 21:52 Mostly Clear 79 26 73 23 84 84 Calm 29.89 1012 10 16 0.00 0.00
10:15 pm 22:15 Clear 80 26.4 72 22.4 79 79 Calm 29.90 1013 10 16 0.00 0.00
10:35 pm 22:35 Clear 80 26.5 73 22.5 79 79 Calm 29.91 1013 10 16 0.00 0.00
10:55 pm 22:55 Clear 78 25.6 73 22.8 85 85 ESE 3 6 29.92 1013 10 16 0.00 0.00
11:15 pm 23:15 Clear 79 26.2 73 22.7 81 81 Calm 29.92 1013 10 16 0.00 0.00
11:35 pm 23:35 Clear 80 26.4 73 22.6 80 80 Calm 29.92 1013 10 16 0.00 0.00
11:55 pm 23:55 Clear 80 26.5 73 22.9 81 81 Calm 29.93 1014 10 16 0.00 0.00

Powered by AerisWeather